User: anonymous   Login
Location: Chiroubles
(46.1812°N, 4.6660°E)
Time: 15:46:05
(UTC+00:00)
Language:

ISS - Orbit

View from above orbital plane
View from above orbital plane
View from above satellite
View from above satellite

Ground track
Ground track

The orbit data is extracted from the following two-line orbital elements,

1 25544U 98067A   20335.63972992  .00016717  00000-0  10270-3 0  9041
2 25544  51.6442 244.8617 0001714  87.2733 272.8613 15.49114415 17810
Epoch (UTC): 30 November 2020 15:21:12
Eccentricity: 0.0001714
inclination: 51.6442°
perigee height: 418 km
apogee height: 420 km
right ascension of ascending node: 244.8617°
argument of perigee: 87.2733°
revolutions per day: 15.49114415
mean anomaly at epoch: 272.8613°
orbit number at epoch: 1781

The dashed part of the orbit path shows where the satellite is in the earth's shadow,  

DLR